^^
Portofino Weather Station Historical Data
 
Daily Summary for September 05, 2026 Units:  English    Metric   Both
Daily Weekly Monthly Yearly
  Current: High: Low: Average:
Temperature: 82.8 °F 82.8 °F 70.3 °F 72.4 °F
Dew Point: 76.5 °F 76.5 °F 68.5 °F 70.2 °F
Humidity: 81.5% 95% 81.5% 93%
Wind Speed: 2.8mph 2.8mph 0mph 0.5mph
Wind Gust: 5.8mph 6.9mph - -
WindWNW - - WSW
Pressure: 29.89 in 29.98 in 29.87 in -
Precipitation: 0.00 in      
 
 
Tabular Data for September 05, 2026
Time Temperature Dew Point Pressure Wind Wind Speed Wind Gust Humidity Rainfall Rate (Hourly)
00:09 71.6 °F 69.2 °F 29.98 in WNW 0.3 mph 2.3 mph 92% 0.01 in
00:14 71.6 °F 69.2 °F 29.98 in WNW 0.2 mph 1.2 mph 92% 0.01 in
00:19 71.6 °F 69.3 °F 29.97 in NW 0.8 mph 2.3 mph 92.4% 0.01 in
00:24 71.6 °F 69.4 °F 29.97 in NNW 0.1 mph 2.3 mph 92.8% 0.01 in
00:29 71.6 °F 69.4 °F 29.97 in NW 0.6 mph 2.3 mph 92.7% 0.01 in
00:34 71.6 °F 69.5 °F 29.97 in NNW 0.3 mph 2.3 mph 93% 0.01 in
00:39 71.6 °F 69.5 °F 29.97 in North 0.3 mph 1.2 mph 93% 0.00 in
00:44 71.5 °F 69.4 °F 29.97 in North 0.6 mph 1.2 mph 93% 0.00 in
00:49 71.5 °F 69.4 °F 29.97 in Calm   1.2 mph 93% 0.00 in
00:54 71.5 °F 69.4 °F 29.97 in Calm   1.2 mph 93% 0.00 in
00:59 71.5 °F 69.4 °F 29.97 in SE 0.7 mph 2.3 mph 93% 0.00 in
01:04 71.4 °F 69.3 °F 29.96 in SSE 0.6 mph 1.2 mph 93% 0.00 in
01:09 71.4 °F 69.3 °F 29.96 in WSW 0.4 mph 1.2 mph 93% 0.00 in
01:14 71.5 °F 69.4 °F 29.96 in Calm     93% 0.00 in
01:19 71.5 °F 69.4 °F 29.95 in Calm     93% 0.00 in
01:24 71.5 °F 69.4 °F 29.95 in South 0.4 mph 2.3 mph 93% 0.00 in
01:29 71.5 °F 69.4 °F 29.96 in ENE 1.5 mph 2.3 mph 93% 0.00 in
01:34 71.5 °F 69.5 °F 29.96 in ENE 1.5 mph 3.5 mph 93.1% 0.00 in
01:39 71.5 °F 69.6 °F 29.96 in ESE 0.1 mph 1.2 mph 93.5% 0.00 in
01:44 71.5 °F 69.5 °F 29.96 in ESE 0.7 mph 1.2 mph 93.4% 0.00 in
01:49 71.6 °F 69.8 °F 29.95 in ESE 0.3 mph 2.3 mph 94% 0.00 in
01:54 71.6 °F 69.8 °F 29.95 in ESE 0.1 mph 1.2 mph 94% 0.00 in
01:59 71.6 °F 69.8 °F 29.95 in Calm     94% 0.00 in
02:04 71.5 °F 69.7 °F 29.95 in Calm     94% 0.00 in
02:09 71.5 °F 69.7 °F 29.95 in ESE 0.2 mph 2.3 mph 94% 0.00 in
02:14 71.4 °F 69.6 °F 29.95 in SSW 1.5 mph 2.3 mph 93.7% 0.00 in
02:19 71.4 °F 69.6 °F 29.94 in SSW 1.2 mph 2.3 mph 94% 0.00 in
02:24 71.4 °F 69.6 °F 29.94 in SW 0.8 mph 2.3 mph 94% 0.00 in
02:29 71.4 °F 69.6 °F 29.94 in WSW 0.6 mph 1.2 mph 94% 0.00 in
02:34 71.4 °F 69.6 °F 29.92 in WSW 0.4 mph 2.3 mph 94% 0.00 in
02:39 71.4 °F 69.5 °F 29.92 in WSW 0.2 mph 1.2 mph 93.5% 0.00 in
02:44 71.4 °F 69.3 °F 29.92 in Calm   1.2 mph 93.2% 0.00 in
02:49 71.3 °F 69.2 °F 29.92 in Calm     93% 0.00 in
02:54 71.3 °F 69.3 °F 29.92 in Calm     93.3% 0.00 in
02:59 71.3 °F 69.5 °F 29.92 in WSW 0.1 mph 2.3 mph 94% 0.00 in
03:04 71.3 °F 69.5 °F 29.92 in Calm   1.2 mph 94% 0.00 in
03:09 71.3 °F 69.5 °F 29.92 in WSW 0.1 mph 2.3 mph 94% 0.00 in
03:14 71.3 °F 69.5 °F 29.92 in Calm   2.3 mph 94% 0.00 in
03:19 71.3 °F 69.5 °F 29.91 in Calm   1.2 mph 94% 0.00 in
03:24 71.2 °F 69.4 °F 29.91 in Calm   2.3 mph 94% 0.00 in
03:29 71.2 °F 69.4 °F 29.91 in WSW 0.5 mph 2.3 mph 94% 0.00 in
03:34 71.2 °F 69.4 °F 29.90 in WSW 1 mph 2.3 mph 94% 0.00 in
03:39 71.1 °F 69.3 °F 29.90 in Calm   2.3 mph 94% 0.00 in
03:44 71.1 °F 69.3 °F 29.90 in Calm     94% 0.00 in
03:49 71.1 °F 69.3 °F 29.90 in WSW 0.3 mph 2.3 mph 94% 0.00 in
03:54 71.1 °F 69.3 °F 29.90 in WSW 0.3 mph 1.2 mph 94% 0.00 in
03:59 71.1 °F 69.3 °F 29.90 in WSW 0.1 mph 1.2 mph 94% 0.00 in
04:04 71.1 °F 69.3 °F 29.90 in Calm     94% 0.00 in
04:09 71.1 °F 69.3 °F 29.90 in Calm     94% 0.00 in
04:14 71 °F 69.2 °F 29.90 in Calm     94% 0.00 in
04:19 71 °F 69.2 °F 29.89 in Calm     94% 0.00 in
04:24 70.9 °F 69.1 °F 29.89 in Calm     94% 0.00 in
04:29 70.9 °F 69.1 °F 29.89 in Calm     94% 0.00 in
04:34 70.8 °F 69 °F 29.89 in Calm     94% 0.00 in
04:39 70.8 °F 69 °F 29.89 in Calm   1.2 mph 94% 0.00 in
04:44 70.9 °F 69.1 °F 29.89 in WSW 0.3 mph 2.3 mph 94% 0.00 in
04:49 71 °F 69.2 °F 29.88 in WSW 0.1 mph 2.3 mph 94% 0.00 in
04:54 71.1 °F 69.3 °F 29.88 in WSW 0.4 mph 2.3 mph 94% 0.00 in
04:59 71.1 °F 69.3 °F 29.88 in Calm     94% 0.00 in
05:04 71.1 °F 69.3 °F 29.88 in Calm     94% 0.00 in
05:09 71.1 °F 69.3 °F 29.88 in Calm     94% 0.00 in
05:14 71 °F 69.2 °F 29.88 in Calm     94% 0.00 in
05:19 70.9 °F 69.1 °F 29.88 in Calm     94% 0.00 in
05:24 70.9 °F 69.1 °F 29.88 in Calm     94% 0.00 in
05:29 70.8 °F 69 °F 29.88 in Calm     94% 0.00 in
05:34 70.8 °F 69 °F 29.88 in Calm   1.2 mph 94% 0.00 in
05:39 70.7 °F 68.9 °F 29.88 in WSW 0.1 mph 2.3 mph 94% 0.00 in
05:44 70.6 °F 68.8 °F 29.88 in Calm     94% 0.00 in
05:49 70.6 °F 68.8 °F 29.87 in Calm     94% 0.00 in
05:54 70.5 °F 68.7 °F 29.87 in Calm     94% 0.00 in
05:59 70.5 °F 68.7 °F 29.88 in WSW 0.1 mph 2.3 mph 94% 0.00 in
06:04 70.5 °F 68.7 °F 29.88 in Calm   2.3 mph 94% 0.00 in
06:09 70.6 °F 68.8 °F 29.88 in Calm     94% 0.00 in
06:14 70.5 °F 68.7 °F 29.88 in Calm   2.3 mph 94% 0.00 in
06:19 70.4 °F 68.6 °F 29.88 in WSW 0.1 mph 1.2 mph 94% 0.00 in
06:24 70.4 °F 68.6 °F 29.88 in WSW 0.4 mph 1.2 mph 94% 0.00 in
06:29 70.5 °F 68.7 °F 29.88 in WSW 0.1 mph 2.3 mph 94% 0.00 in
06:34 70.6 °F 68.8 °F 29.88 in WSW 0.1 mph 2.3 mph 94% 0.00 in
06:39 70.5 °F 68.7 °F 29.88 in Calm   1.2 mph 94% 0.00 in
06:44 70.4 °F 68.6 °F 29.88 in WSW 0.3 mph 2.3 mph 94% 0.00 in
06:49 70.3 °F 68.5 °F 29.88 in WSW 0.2 mph 2.3 mph 94% 0.00 in
06:54 70.3 °F 68.5 °F 29.88 in WSW 0.1 mph 1.2 mph 94% 0.00 in
06:59 70.3 °F 68.5 °F 29.89 in WSW 0.1 mph 1.2 mph 94% 0.00 in
07:04 70.3 °F 68.5 °F 29.89 in Calm     94% 0.00 in
07:09 70.3 °F 68.5 °F 29.89 in WSW 0.1 mph 2.3 mph 94% 0.00 in
07:14 70.3 °F 68.5 °F 29.89 in Calm   1.2 mph 94% 0.00 in
07:19 70.4 °F 68.6 °F 29.89 in Calm     94% 0.00 in
07:24 70.7 °F 69 °F 29.89 in Calm     94.4% 0.00 in
07:29 71.2 °F 69.7 °F 29.89 in Calm     95% 0.00 in
07:34 71.6 °F 70.1 °F 29.89 in Calm   1.2 mph 95% 0.00 in
07:39 72 °F 70.5 °F 29.89 in Calm     95% 0.00 in
07:44 73 °F 71.5 °F 29.90 in Calm     95% 0.00 in
07:49 73.5 °F 72 °F 29.90 in Calm     95% 0.00 in
07:54 73.3 °F 71.6 °F 29.90 in NW 0.1 mph 2.3 mph 94.3% 0.00 in
07:59 73.4 °F 71.6 °F 29.91 in WNW 0.1 mph 2.3 mph 94% 0.00 in
08:04 73.6 °F 71.8 °F 29.91 in WNW 0.4 mph 1.2 mph 94% 0.00 in
08:09 73.7 °F 71.6 °F 29.91 in SW 1.2 mph 2.3 mph 93.2% 0.00 in
08:14 73.8 °F 71.6 °F 29.91 in WSW 0.9 mph 2.3 mph 93% 0.00 in
08:19 74 °F 71.7 °F 29.91 in WSW 1.2 mph 2.3 mph 92.8% 0.00 in
08:24 74.4 °F 72.2 °F 29.91 in SW 1.6 mph 3.5 mph 92.9% 0.00 in
08:29 74.8 °F 72.3 °F 29.91 in SW 1.7 mph 3.5 mph 92% 0.00 in
08:34 75.3 °F 72.8 °F 29.91 in WSW 1.1 mph 2.3 mph 91.8% 0.00 in
08:39 75.8 °F 73.1 °F 29.91 in West 0.7 mph 2.3 mph 91.5% 0.00 in
08:44 76.2 °F 73.3 °F 29.91 in WNW 0.7 mph 2.3 mph 90.7% 0.00 in
08:49 76.7 °F 73.8 °F 29.91 in West 1.1 mph 2.3 mph 90.5% 0.00 in
08:54 77.3 °F 74.3 °F 29.91 in WNW 1.3 mph 3.5 mph 90.6% 0.00 in
08:59 78.1 °F 74.9 °F 29.91 in NW 1.4 mph 5.8 mph 89.9% 0.00 in
09:04 78.5 °F 74.6 °F 29.90 in NW 2.8 mph 6.9 mph 88% 0.00 in
09:09 78.9 °F 74.9 °F 29.90 in NW 2.6 mph 6.9 mph 87.5% 0.00 in
09:14 79.4 °F 75.3 °F 29.90 in WNW 1.6 mph 4.6 mph 87.2% 0.00 in
09:19 79.9 °F 75.3 °F 29.90 in WNW 2.2 mph 4.6 mph 86.1% 0.00 in
09:24 80.3 °F 75.6 °F 29.90 in WNW 2.4 mph 5.8 mph 85.6% 0.00 in
09:29 80.8 °F 75.6 °F 29.90 in WNW 2.7 mph 5.8 mph 84.5% 0.00 in
09:34 81.3 °F 76.2 °F 29.89 in WNW 2.5 mph 4.6 mph 84.4% 0.00 in
09:39 81.8 °F 76 °F 29.89 in West 2.1 mph 4.6 mph 82.6% 0.00 in
09:44 82.3 °F 76.2 °F 29.89 in West 2.7 mph 5.8 mph 81.8% 0.00 in
09:49 82.8 °F 76.5 °F 29.89 in WNW 2.8 mph 5.8 mph 81.5% 0.00 in
Clayton, NC Weather
Compliments of Weather Underground - 2 mb

Free counters!